{"data":{"norad_id":51284,"intl_designator":"2022-007A","name":"LUDI TANCE 1-01A (L-SA*)","alt_names":[],"object_type":"PAYLOAD","status":"ACTIVE","operator":null,"country":"PRC","launch_date":"2022-01-25","launch_site_code":"JSC","launch_vehicle":null,"mission":null,"orbit_class":"UNKNOWN","rcs_meters":null,"size_class":null,"mass_kg":null,"dimensions":null,"purposes":[],"wikipedia_slug":null,"has_3d_model":false,"image_url":null,"decayed_at":null,"tle_current":{"epoch":"2026-05-25T04:32:52.984032Z","epoch_age_seconds":62658,"freshness":"FRESH","line1":"1 51284U 22007A   26145.18950213  .00000525  00000+0  62461-4 0  9992","line2":"2 51284  97.8102 152.9364 0001613  90.4201 269.7200 14.88425812235050","mean_motion":14.88425812,"eccentricity":0.0001613,"inclination_deg":97.8102,"raan_deg":152.9364,"arg_perigee_deg":90.4201,"mean_anomaly_deg":269.72,"bstar":6.2461e-5,"rev_number":23505,"period_min":96.7465081827,"perigee_km":601.72745137387,"apogee_km":603.97951890438,"semimajor_km":6980.9904851391,"source":"CELESTRAK","updated_at":"2026-05-25T13:37:57.411173Z"}}}